SCP
0 0 0 0 0 0 0 1 1 2 2 4 5 4 2 3 3 2 5 3 2 1 1 1 2 2 1 1 3 2 1 2 1 1 1 1 1 0 0 0 0 0 0
0 0 0 0 0 0 1 1 1 2 2 4 4 4 3 2 3 4 4 3 2 1 1 1 1 2 1 2 2 2 2 2 0 0 0 0 1 0 0 0 0 0 0
0 0 0 0 0 0 0 1 1 1 1 2 3 4 3 2 1 3 4 4 2 1 0 0 1 1 1 2 3 2 2 1 0 0 0 0 0 0 0 0 0 0 0
0 0 0 0 0 0 0 0 1 1 1 1 1 2 4 3 2 1 2 4 2 1 0 0 2 2 2 3 3 3 2 1 0 0 0 0 0 0 0 0 0 0 0
0 0 0 0 0 0 0 0 1 1 1 1 1 2 3 3 2 2 1 3 2 1 1 2 4 3 3 2 1 0 0 0 0 0 0 0 0 0 0 0 0 0 0
0 0 0 0 0 0 0 0 1 1 2 1 1 1 2 3 2 1 2 3 2 3 2 3 4 2 1 0 0 0 0 0 0 0 0 0 0 0 0 0 0 0 0
0 0 -0 0 0 0 0 0 0 1 1 2 2 1 2 3 2 2 2 1 1 4 4 4 2 0 0 0 0 0 0 0 0 0 0 0 0 0 0 0 0 0 0
0 0 0 0 0 0 0 0 0 1 1 1 1 1 2 3 3 1 2 1 2 6 4 1 0 0 0 0 0 0 0 0 0 0 0 0 0 0 0 0 0 0 0
0 0 0 0 0 0 1 1 1 1 1 1 2 2 2 2 2 1 2 2 3 0 0 0 0 0 0 0 0 0 0 0 0 0 0 0 0 0 0 0 0 0 0
0 0 0 0 0 0 0 0 1 1 1 1 1 2 1 2 2 2 1 0 0 0 0 0 0 0 0 0 0 0 0 0 0 0 0 0 0 0 0 0 0 0 0
0 0 0 0 0 0 0 1 1 0 0 0 1 2 1 1 2 1 2 1 0 0 0 0 0 0 0 0 0 0 0 0 0 0 0 0 0 0 0 0 0 0 0
0 0 0 0 0 0 0 0 0 0 0 0 0 1 1 1 1 1 1 0 0 0 0 0 0 0 0 0 0 0 0 0 0 0 0 0 0 0 0 0 0 0 0
0 0 0 0 0 0 0 0 0 0 0 0 0 1 1 1 2 1 0 0 0 0 0 0 0 0 0 0 0 0 0 0 0 0 0 0 0 0 0 0 0 0 0
0 0 0 0 0 0 0 0 0 0 0 0 0 1 3 1 1 0 0 0 0 0 0 0 0 0 0 0 0 0 0 0 0 0 0 0 0 0 0 0 0 0 0
0 0 0 0 0 0 0 0 0 0 0 0 0 1 0 1 0 0 0 0 0 0 0 0 0 0 0 0 0 0 0 0 0 0 0 0 0 0 -0 0 0 0 0
0 0 0 0 0 0 0 0 0 1 0 0 1 1 0 1 0 0 0 0 0 0 0 0 0 0 0 0 0 0 0 0 0 0 0 0 0 -0 0 0 0 -0 0
0 0 0 0 0 0 0 0 0 1 0 1 1 0 1 1 0 0 0 0 0 0 0 0 0 0 0 0 -0 -0 0 0 0 0 -0 0 0 0 0 0 0 0 0
0 0 0 0 0 0 0 0 1 1 1 1 1 0 0 0 0 0 0 0 0 0 0 0 0 0 0 0 -0 -0 -0 0 0 -0 -0 0 0 0 0 0 0 0 0
0 0 0 0 0 0 0 0 0 0 1 1 1 0 0 0 0 0 0 0 0 0 0 0 0 -0 0 -0 0 -0 0 -0 -0 -0 0 0 0 0 0 0 0 0 0
0 0 0 0 0 -0 0 0 0 0 1 0 0 0 0 0 0 0 0 0 0 0 0 0 0 0 0 -0 -0 0 0 -0 -0 0 0 0 0 0 0 0 0 0 0
-0 -0 -0 -0 0 0 0 0 0 0 0 0 0 0 0 0 0 0 0 0 0 0 0 0 0 0 -0 -0 -0 0 -0 -0 0 0 0 0 0 0 0 0 0 0 0
0 -0 -0 -0 0 0 0 0 0 0 0 0 0 0 0 0 0 0 0 0 0 0 0 -0 0 0 0 0 -0 -0 -0 -0 0 0 0 -0 -0 -0 0 0 0 0 0
-0 -0 -0 0 0 0 0 0 0 0 0 0 0 0 0 0 0 0 0 0 0 0 0 0 0 0 0 0 -0 -0 -0 0 -0 -0 -0 0 -0 0 0 0 0 0 0
-0 -0 -0 0 0 0 0 0 0 0 0 0 0 0 0 0 0 0 0 0 0 0 0 0 0 0 0 0 0 0 0 0 0 0 0 0 0 0 0 0 0 0 0
0 -0 -0 0 0 0 0 0 0 0 0 0 0 0 0 0 0 0 0 0 0 0 0 0 0 0 0 0 -0 0 0 0 0 0 0 0 0 0 0 0 0 0 0
0 0 0 0 0 0 0 0 0 0 0 0 0 0 0 0 0 0 0 0 0 -0 0 0 0 0 0 0 0 0 0 0 0 0 0 0 0 0 0 0 0 0 0
Wind_Speed_500mb
55 49 50 48 47 44 50 50 44 51 43 49 55 57 67 65 67 49 60 57 49 57 50 46 43 44 36 24 35 34 30 15 24 18 7 19 31 24 17 17 13 17 20
54 49 48 46 46 37 41 45 41 46 51 46 49 62 70 78 73 53 56 60 55 56 48 49 48 44 38 31 29 27 21 15 21 12 8 7 6 11 19 9 16 17 28
44 41 48 48 42 45 45 38 38 39 44 54 43 44 59 71 73 61 59 66 59 60 47 48 36 32 32 34 33 26 30 11 13 9 2 4 4 18 9 4 18 22 23
32 30 31 44 46 43 42 44 42 37 44 39 49 51 50 69 73 73 61 69 63 58 51 51 42 38 37 34 30 29 19 18 5 1 6 3 6 4 11 13 14 16 22
18 15 18 34 37 45 42 43 49 40 36 35 42 47 65 57 69 72 61 59 65 60 56 57 51 45 44 39 35 29 24 27 18 11 7 10 5 12 12 14 27 25 25
5 15 18 19 30 36 42 43 38 37 36 33 44 47 57 62 67 72 72 74 70 67 60 59 51 50 51 41 30 21 16 15 9 10 6 6 4 7 10 13 18 27 27
6 6 9 10 19 31 33 40 42 46 44 38 42 45 50 54 68 76 71 68 67 70 62 59 59 62 49 36 30 26 20 14 9 7 10 7 12 4 5 9 19 25 24
4 8 7 14 9 15 28 35 35 36 44 35 38 42 47 53 64 75 74 79 77 81 69 70 60 50 46 39 34 25 17 6 4 1 13 4 2 9 14 17 24 28 28
15 9 11 14 15 23 22 19 12 12 13 21 40 44 42 57 57 71 81 82 67 85 83 75 58 53 45 39 32 22 13 8 13 12 5 6 11 15 11 17 16 18 27
5 20 15 24 23 19 21 28 27 30 29 24 32 45 40 53 53 65 53 70 58 84 81 68 62 55 45 38 27 20 19 16 12 9 7 9 11 9 9 16 12 17 18
16 6 7 17 20 23 19 23 28 31 25 44 32 39 35 41 48 59 48 70 54 80 78 69 62 54 51 37 27 18 14 9 9 7 11 13 14 13 11 14 15 16 22
42 17 8 18 21 25 36 25 28 25 22 29 40 32 38 40 48 47 51 66 70 68 71 71 58 52 38 26 18 26 21 16 11 12 13 13 17 10 10 16 18 20 20
33 28 22 23 28 29 33 36 30 33 27 26 33 40 36 34 36 37 51 54 78 64 74 58 49 46 34 33 27 26 27 20 15 15 15 18 14 14 19 23 21 24 24
37 24 26 28 32 31 31 39 40 35 25 28 34 33 38 30 26 23 33 60 59 86 71 59 44 42 39 35 33 30 23 24 24 20 19 19 20 24 25 26 31 31 22
33 27 26 31 29 34 35 43 30 40 23 30 32 29 34 18 18 32 48 48 41 66 87 67 53 49 46 39 35 29 28 26 23 22 23 22 19 26 35 32 36 40 38
38 36 34 38 26 33 40 43 45 38 20 26 19 13 22 26 51 55 46 41 47 60 81 75 81 68 55 44 37 34 35 32 28 23 23 23 20 20 28 29 31 40 45
45 43 43 40 31 35 46 43 46 36 29 21 20 27 28 35 38 40 41 52 45 55 73 74 70 65 59 43 33 30 34 31 27 23 22 24 22 18 23 24 27 30 36
59 44 38 34 32 48 51 33 30 36 24 12 25 25 26 38 39 52 59 72 71 64 72 62 61 63 52 47 36 30 31 30 29 29 29 24 23 25 23 24 21 17 30
35 32 29 34 39 42 38 25 31 31 26 24 43 44 50 50 54 69 79 77 75 73 73 69 64 61 57 45 37 34 37 37 39 35 34 36 32 29 26 30 23 22 31
59 55 54 50 62 56 37 27 29 25 31 41 56 65 77 82 76 75 73 74 68 68 61 59 60 55 51 46 41 40 36 33 36 39 44 50 49 32 28 30 33 37 35
96 87 69 63 59 37 37 44 29 17 44 50 60 75 79 82 71 60 75 82 79 77 68 65 55 52 48 54 48 40 39 31 25 42 47 46 48 44 25 21 31 33 23
79 72 61 59 47 38 38 44 29 45 64 65 67 76 81 77 70 76 77 75 68 69 61 63 58 55 52 47 39 38 28 34 48 55 51 44 40 43 42 41 36 29 29
90 77 60 48 39 39 41 41 34 68 78 70 76 81 87 81 80 79 79 76 73 63 64 66 64 61 52 49 46 54 62 64 59 53 43 36 33 34 42 43 40 38 42
45 63 59 52 45 47 41 43 77 89 90 84 95 97 90 92 86 84 72 76 66 67 67 70 69 62 57 51 46 51 54 51 48 46 41 29 31 42 45 46 48 49 52
36 65 65 62 56 54 53 77 89 86 95 100 98 96 99 97 93 95 81 80 62 55 48 52 58 56 54 46 52 58 55 49 40 27 35 51 51 52 58 69 73 70 67
57 72 72 69 59 63 89 88 89 87 100 110 112 107 99 102 101 89 83 66 55 57 51 51 62 65 71 68 63 57 53 42 27 56 59 57 56 59 63 65 66 61 57
Wind_Direction_500mb
257 246 244 241 237 237 241 233 226 236 244 238 246 239 223 212 205 215 213 218 222 205 212 189 201 205 199 204 215 219 219 225 251 287 267 294 274 287 296 291 297 298 285
243 240 235 238 231 234 237 219 218 241 238 235 247 240 229 221 207 208 212 221 225 211 206 191 202 209 185 216 215 219 204 224 268 276 315 359 239 331 308 265 264 280 337
251 245 223 226 227 223 236 228 230 248 252 234 240 248 240 232 225 209 209 215 218 210 204 197 201 194 188 216 223 220 212 212 256 282 51 55 49 346 14 173 330 342 24
238 241 247 220 215 219 223 234 232 244 256 259 237 243 246 236 226 216 213 214 220 208 198 186 197 198 198 202 204 201 209 193 238 14 356 43 297 290 290 315 330 340 324
296 255 247 232 226 216 224 234 234 225 234 243 247 240 247 248 234 224 216 213 214 200 191 184 193 190 195 186 198 199 204 175 190 172 188 273 309 269 297 316 334 345 12
4 352 305 268 227 224 216 226 238 225 223 240 245 247 256 249 235 228 213 205 206 193 184 190 191 192 195 199 206 187 168 159 189 206 226 321 319 298 321 0 343 355 11
24 271 283 243 248 227 239 225 228 231 226 231 245 252 254 255 241 228 218 215 196 191 189 189 192 194 191 188 178 159 162 176 199 285 326 31 47 28 328 356 8 3 8
153 331 25 3 351 240 235 240 244 236 224 234 243 249 256 260 245 234 223 217 195 189 184 189 195 191 180 164 159 163 175 194 291 167 124 131 9 19 22 31 19 358 2
55 60 40 26 358 359 347 9 316 259 252 239 240 245 268 253 252 238 229 214 203 178 187 188 182 174 163 162 160 171 185 157 125 100 72 44 55 40 23 49 17 13 347
72 46 18 5 15 346 342 326 311 298 283 273 274 246 270 254 255 247 242 207 215 199 183 188 173 166 167 166 169 143 114 125 69 72 52 46 51 38 14 60 352 27 338
124 129 309 304 307 337 310 304 308 285 302 250 263 245 260 262 268 252 231 199 192 178 197 180 166 166 168 164 135 113 131 112 114 75 53 49 59 41 68 31 31 353 11
338 329 318 335 334 313 310 300 293 309 287 278 260 259 264 271 260 253 236 191 201 187 182 166 167 162 151 155 159 169 153 144 117 86 72 63 52 23 63 36 41 2 39
303 318 327 325 308 299 298 303 295 297 293 295 264 256 253 265 259 260 232 193 197 185 169 173 167 155 156 151 146 143 147 133 108 95 80 66 56 49 43 35 32 40 42
284 282 303 300 287 285 286 293 291 294 292 294 270 254 220 242 249 247 225 193 213 186 175 160 161 159 141 155 151 144 127 113 106 94 77 71 59 49 47 43 39 36 34
277 272 276 277 290 290 290 275 275 286 286 283 280 241 202 185 192 201 182 188 202 174 163 155 158 143 147 149 139 130 120 109 99 85 70 58 47 59 52 41 36 34 39
282 289 286 286 284 281 286 285 285 291 276 262 262 224 208 194 132 131 129 135 125 137 138 143 143 141 136 133 133 127 124 124 113 90 61 53 48 59 64 41 40 32 31
287 285 278 271 282 279 273 290 275 272 291 276 245 236 197 194 184 166 162 148 161 145 148 146 139 134 131 130 116 120 122 111 97 82 69 58 57 62 68 55 48 44 31
279 282 286 276 278 262 258 275 267 262 279 214 180 193 180 170 179 172 160 162 160 146 140 138 136 127 119 109 114 111 104 100 85 79 69 62 56 51 61 82 64 42 32
282 280 278 265 267 277 253 250 265 239 242 219 168 157 164 163 165 153 150 143 145 140 139 141 132 123 114 119 126 115 101 93 85 76 68 58 57 53 68 84 80 58 52
275 268 269 273 273 268 248 255 258 272 199 188 178 161 158 158 157 148 145 145 154 143 134 121 118 119 124 122 111 95 88 77 76 72 64 57 55 60 73 70 66 58 40
271 272 265 259 258 248 236 235 257 239 193 177 167 165 161 154 148 150 151 142 136 136 131 125 122 121 120 108 104 104 103 104 84 73 67 55 46 40 59 70 68 61 45
268 262 250 247 243 223 222 231 244 179 173 173 166 165 154 149 146 146 145 142 131 124 133 125 121 119 120 125 134 134 111 95 84 75 70 58 47 32 52 63 68 68 58
256 250 236 226 215 207 204 216 189 166 165 165 160 157 151 147 153 153 145 142 131 134 127 124 120 113 113 108 106 105 90 78 74 74 79 78 54 35 54 57 57 58 60
251 220 210 201 197 192 191 188 160 165 163 158 153 150 151 148 144 140 137 129 136 131 124 122 114 110 106 103 102 99 92 86 81 79 87 70 59 67 64 61 60 62 60
203 175 178 177 178 176 177 166 167 169 159 155 150 149 151 150 139 123 124 135 134 131 133 132 135 130 120 113 106 100 98 95 96 99 86 81 73 73 73 69 65 63 59
141 151 161 164 166 173 163 166 167 169 158 146 149 150 147 142 133 132 132 132 137 156 154 135 125 118 111 110 107 103 99 100 91 91 82 78 78 79 77 63 53 53 51
Wind_Speed_850mb
55 49 50 48 47 44 50 50 44 51 43 49 55 57 67 65 67 49 60 57 49 57 50 46 43 44 36 24 35 34 30 15 24 18 7 19 31 24 17 17 13 17 20
54 49 48 46 46 37 41 45 41 46 51 46 49 62 70 78 73 53 56 60 55 56 48 49 48 44 38 31 29 27 21 15 21 12 8 7 6 11 19 9 16 17 28
44 41 48 48 42 45 45 38 38 39 44 54 43 44 59 71 73 61 59 66 59 60 47 48 36 32 32 34 33 26 30 11 13 9 2 4 4 18 9 4 18 22 23
32 30 31 44 46 43 42 44 42 37 44 39 49 51 50 69 73 73 61 69 63 58 51 51 42 38 37 34 30 29 19 18 5 1 6 3 6 4 11 13 14 16 22
18 15 18 34 37 45 42 43 49 40 36 35 42 47 65 57 69 72 61 59 65 60 56 57 51 45 44 39 35 29 24 27 18 11 7 10 5 12 12 14 27 25 25
5 15 18 19 30 36 42 43 38 37 36 33 44 47 57 62 67 72 72 74 70 67 60 59 51 50 51 41 30 21 16 15 9 10 6 6 4 7 10 13 18 27 27
6 6 9 10 19 31 33 40 42 46 44 38 42 45 50 54 68 76 71 68 67 70 62 59 59 62 49 36 30 26 20 14 9 7 10 7 12 4 5 9 19 25 24
4 8 7 14 9 15 28 35 35 36 44 35 38 42 47 53 64 75 74 79 77 81 69 70 60 50 46 39 34 25 17 6 4 1 13 4 2 9 14 17 24 28 28
15 9 11 14 15 23 22 19 12 12 13 21 40 44 42 57 57 71 81 82 67 85 83 75 58 53 45 39 32 22 13 8 13 12 5 6 11 15 11 17 16 18 27
5 20 15 24 23 19 21 28 27 30 29 24 32 45 40 53 53 65 53 70 58 84 81 68 62 55 45 38 27 20 19 16 12 9 7 9 11 9 9 16 12 17 18
16 6 7 17 20 23 19 23 28 31 25 44 32 39 35 41 48 59 48 70 54 80 78 69 62 54 51 37 27 18 14 9 9 7 11 13 14 13 11 14 15 16 22
42 17 8 18 21 25 36 25 28 25 22 29 40 32 38 40 48 47 51 66 70 68 71 71 58 52 38 26 18 26 21 16 11 12 13 13 17 10 10 16 18 20 20
33 28 22 23 28 29 33 36 30 33 27 26 33 40 36 34 36 37 51 54 78 64 74 58 49 46 34 33 27 26 27 20 15 15 15 18 14 14 19 23 21 24 24
37 24 26 28 32 31 31 39 40 35 25 28 34 33 38 30 26 23 33 60 59 86 71 59 44 42 39 35 33 30 23 24 24 20 19 19 20 24 25 26 31 31 22
33 27 26 31 29 34 35 43 30 40 23 30 32 29 34 18 18 32 48 48 41 66 87 67 53 49 46 39 35 29 28 26 23 22 23 22 19 26 35 32 36 40 38
38 36 34 38 26 33 40 43 45 38 20 26 19 13 22 26 51 55 46 41 47 60 81 75 81 68 55 44 37 34 35 32 28 23 23 23 20 20 28 29 31 40 45
45 43 43 40 31 35 46 43 46 36 29 21 20 27 28 35 38 40 41 52 45 55 73 74 70 65 59 43 33 30 34 31 27 23 22 24 22 18 23 24 27 30 36
59 44 38 34 32 48 51 33 30 36 24 12 25 25 26 38 39 52 59 72 71 64 72 62 61 63 52 47 36 30 31 30 29 29 29 24 23 25 23 24 21 17 30
35 32 29 34 39 42 38 25 31 31 26 24 43 44 50 50 54 69 79 77 75 73 73 69 64 61 57 45 37 34 37 37 39 35 34 36 32 29 26 30 23 22 31
59 55 54 50 62 56 37 27 29 25 31 41 56 65 77 82 76 75 73 74 68 68 61 59 60 55 51 46 41 40 36 33 36 39 44 50 49 32 28 30 33 37 35
96 87 69 63 59 37 37 44 29 17 44 50 60 75 79 82 71 60 75 82 79 77 68 65 55 52 48 54 48 40 39 31 25 42 47 46 48 44 25 21 31 33 23
79 72 61 59 47 38 38 44 29 45 64 65 67 76 81 77 70 76 77 75 68 69 61 63 58 55 52 47 39 38 28 34 48 55 51 44 40 43 42 41 36 29 29
90 77 60 48 39 39 41 41 34 68 78 70 76 81 87 81 80 79 79 76 73 63 64 66 64 61 52 49 46 54 62 64 59 53 43 36 33 34 42 43 40 38 42
45 63 59 52 45 47 41 43 77 89 90 84 95 97 90 92 86 84 72 76 66 67 67 70 69 62 57 51 46 51 54 51 48 46 41 29 31 42 45 46 48 49 52
36 65 65 62 56 54 53 77 89 86 95 100 98 96 99 97 93 95 81 80 62 55 48 52 58 56 54 46 52 58 55 49 40 27 35 51 51 52 58 69 73 70 67
57 72 72 69 59 63 89 88 89 87 100 110 112 107 99 102 101 89 83 66 55 57 51 51 62 65 71 68 63 57 53 42 27 56 59 57 56 59 63 65 66 61 57
Wind_Direction_850mb
257 246 244 241 237 237 241 233 226 236 244 238 246 239 223 212 205 215 213 218 222 205 212 189 201 205 199 204 215 219 219 225 251 287 267 294 274 287 296 291 297 298 285
243 240 235 238 231 234 237 219 218 241 238 235 247 240 229 221 207 208 212 221 225 211 206 191 202 209 185 216 215 219 204 224 268 276 315 359 239 331 308 265 264 280 337
251 245 223 226 227 223 236 228 230 248 252 234 240 248 240 232 225 209 209 215 218 210 204 197 201 194 188 216 223 220 212 212 256 282 51 55 49 346 14 173 330 342 24
238 241 247 220 215 219 223 234 232 244 256 259 237 243 246 236 226 216 213 214 220 208 198 186 197 198 198 202 204 201 209 193 238 14 356 43 297 290 290 315 330 340 324
296 255 247 232 226 216 224 234 234 225 234 243 247 240 247 248 234 224 216 213 214 200 191 184 193 190 195 186 198 199 204 175 190 172 188 273 309 269 297 316 334 345 12
4 352 305 268 227 224 216 226 238 225 223 240 245 247 256 249 235 228 213 205 206 193 184 190 191 192 195 199 206 187 168 159 189 206 226 321 319 298 321 0 343 355 11
24 271 283 243 248 227 239 225 228 231 226 231 245 252 254 255 241 228 218 215 196 191 189 189 192 194 191 188 178 159 162 176 199 285 326 31 47 28 328 356 8 3 8
153 331 25 3 351 240 235 240 244 236 224 234 243 249 256 260 245 234 223 217 195 189 184 189 195 191 180 164 159 163 175 194 291 167 124 131 9 19 22 31 19 358 2
55 60 40 26 358 359 347 9 316 259 252 239 240 245 268 253 252 238 229 214 203 178 187 188 182 174 163 162 160 171 185 157 125 100 72 44 55 40 23 49 17 13 347
72 46 18 5 15 346 342 326 311 298 283 273 274 246 270 254 255 247 242 207 215 199 183 188 173 166 167 166 169 143 114 125 69 72 52 46 51 38 14 60 352 27 338
124 129 309 304 307 337 310 304 308 285 302 250 263 245 260 262 268 252 231 199 192 178 197 180 166 166 168 164 135 113 131 112 114 75 53 49 59 41 68 31 31 353 11
338 329 318 335 334 313 310 300 293 309 287 278 260 259 264 271 260 253 236 191 201 187 182 166 167 162 151 155 159 169 153 144 117 86 72 63 52 23 63 36 41 2 39
303 318 327 325 308 299 298 303 295 297 293 295 264 256 253 265 259 260 232 193 197 185 169 173 167 155 156 151 146 143 147 133 108 95 80 66 56 49 43 35 32 40 42
284 282 303 300 287 285 286 293 291 294 292 294 270 254 220 242 249 247 225 193 213 186 175 160 161 159 141 155 151 144 127 113 106 94 77 71 59 49 47 43 39 36 34
277 272 276 277 290 290 290 275 275 286 286 283 280 241 202 185 192 201 182 188 202 174 163 155 158 143 147 149 139 130 120 109 99 85 70 58 47 59 52 41 36 34 39
282 289 286 286 284 281 286 285 285 291 276 262 262 224 208 194 132 131 129 135 125 137 138 143 143 141 136 133 133 127 124 124 113 90 61 53 48 59 64 41 40 32 31
287 285 278 271 282 279 273 290 275 272 291 276 245 236 197 194 184 166 162 148 161 145 148 146 139 134 131 130 116 120 122 111 97 82 69 58 57 62 68 55 48 44 31
279 282 286 276 278 262 258 275 267 262 279 214 180 193 180 170 179 172 160 162 160 146 140 138 136 127 119 109 114 111 104 100 85 79 69 62 56 51 61 82 64 42 32
282 280 278 265 267 277 253 250 265 239 242 219 168 157 164 163 165 153 150 143 145 140 139 141 132 123 114 119 126 115 101 93 85 76 68 58 57 53 68 84 80 58 52
275 268 269 273 273 268 248 255 258 272 199 188 178 161 158 158 157 148 145 145 154 143 134 121 118 119 124 122 111 95 88 77 76 72 64 57 55 60 73 70 66 58 40
271 272 265 259 258 248 236 235 257 239 193 177 167 165 161 154 148 150 151 142 136 136 131 125 122 121 120 108 104 104 103 104 84 73 67 55 46 40 59 70 68 61 45
268 262 250 247 243 223 222 231 244 179 173 173 166 165 154 149 146 146 145 142 131 124 133 125 121 119 120 125 134 134 111 95 84 75 70 58 47 32 52 63 68 68 58
256 250 236 226 215 207 204 216 189 166 165 165 160 157 151 147 153 153 145 142 131 134 127 124 120 113 113 108 106 105 90 78 74 74 79 78 54 35 54 57 57 58 60
251 220 210 201 197 192 191 188 160 165 163 158 153 150 151 148 144 140 137 129 136 131 124 122 114 110 106 103 102 99 92 86 81 79 87 70 59 67 64 61 60 62 60
203 175 178 177 178 176 177 166 167 169 159 155 150 149 151 150 139 123 124 135 134 131 133 132 135 130 120 113 106 100 98 95 96 99 86 81 73 73 73 69 65 63 59
141 151 161 164 166 173 163 166 167 169 158 146 149 150 147 142 133 132 132 132 137 156 154 135 125 118 111 110 107 103 99 100 91 91 82 78 78 79 77 63 53 53 51